When you browse on this site, cookies collect data to enhance your experience and personalize the content and advertising you see.
Visit our Privacy Policy to learn more. By continuing to use the site, you agree to this use of cookies and data.

Météo par heure à Speshnevka

Ce jour, 26 Septembre, Samedi

Heure Température Précipitation Vent Pression Humidité
00:00 +14°C° 0 mm 4 m/s 746 mmHg 58%
01:00 +14°C° 0 mm 4 m/s 746 mmHg 59%
02:00 +13°C° 0 mm 4 m/s 746 mmHg 61%
03:00 +13°C° 0 mm 4 m/s 747 mmHg 62%
04:00 +13°C° 0 mm 4 m/s 747 mmHg 63%
05:00 +12°C° 0 mm 4 m/s 747 mmHg 64%
06:00 +12°C° 0 mm 4 m/s 747 mmHg 66%
07:00 +13°C° 0 mm 4 m/s 747 mmHg 62%
08:00 +14°C° 0 mm 5 m/s 747 mmHg 58%
09:00 +15°C° 0 mm 5 m/s 747 mmHg 54%
10:00 +17°C° 0 mm 6 m/s 747 mmHg 49%
11:00 +20°C° 0 mm 6 m/s 747 mmHg 45%
12:00 +22°C° 0 mm 6 m/s 747 mmHg 40%
13:00 +22°C° 0 mm 6 m/s 747 mmHg 40%
14:00 +22°C° 0 mm 6 m/s 747 mmHg 41%
15:00 +22°C° 0 mm 6 m/s 747 mmHg 41%
16:00 +21°C° 0 mm 5 m/s 747 mmHg 43%
17:00 +20°C° 0 mm 5 m/s 747 mmHg 45%
18:00 +19°C° 0 mm 5 m/s 747 mmHg 46%
19:00 +19°C° 0 mm 5 m/s 747 mmHg 45%
20:00 +19°C° 0 mm 5 m/s 747 mmHg 44%
21:00 +19°C° 0 mm 5 m/s 747 mmHg 42%
22:00 +17°C° 0 mm 5 m/s 747 mmHg 41%
23:00 +17°C° 0 mm 6 m/s 747 mmHg 40%

Demain, 27 Septembre, Dimanche

Heure Température Précipitation Vent Pression Humidité
00:00 +17°C° 0 mm 6 m/s 748 mmHg 39%
01:00 +16°C° 0 mm 6 m/s 748 mmHg 38%
02:00 +15°C° 0 mm 6 m/s 748 mmHg 38%
03:00 +15°C° 0 mm 6 m/s 748 mmHg 37%
04:00 +14°C° 0 mm 6 m/s 748 mmHg 38%
05:00 +13°C° 0 mm 6 m/s 748 mmHg 38%
06:00 +13°C° 0 mm 6 m/s 748 mmHg 39%
07:00 +13°C° 0 mm 6 m/s 749 mmHg 40%
08:00 +12°C° 0 mm 7 m/s 749 mmHg 42%
09:00 +12°C° 0 mm 7 m/s 749 mmHg 43%
10:00 +15°C° 0 mm 7 m/s 749 mmHg 41%
11:00 +16°C° 0 mm 7 m/s 749 mmHg 39%
12:00 +17°C° 0 mm 8 m/s 749 mmHg 37%
13:00 +18°C° 0 mm 8 m/s 749 mmHg 37%
14:00 +20°C° 0 mm 8 m/s 749 mmHg 36%
15:00 +21°C° 0 mm 8 m/s 749 mmHg 35%
16:00 +20°C° 0 mm 7 m/s 749 mmHg 36%
17:00 +19°C° 0 mm 6 m/s 749 mmHg 38%
18:00 +19°C° 0 mm 5 m/s 748 mmHg 39%
19:00 +19°C° 0 mm 6 m/s 749 mmHg 38%
20:00 +17°C° 0 mm 6 m/s 749 mmHg 37%
21:00 +17°C° 0 mm 6 m/s 749 mmHg 36%
22:00 +17°C° 0 mm 6 m/s 749 mmHg 36%
23:00 +17°C° 0 mm 6 m/s 749 mmHg 36%

Après-demain, 28 Septembre, Lundi

Heure Température Précipitation Vent Pression Humidité
00:00 +16°C° 0 mm 5 m/s 749 mmHg 36%
01:00 +15°C° 0.3 mm 5 m/s 749 mmHg 40%
02:00 +15°C° 0.3 mm 5 m/s 749 mmHg 44%
03:00 +14°C° 0.3 mm 5 m/s 749 mmHg 49%
04:00 +13°C° 0.9 mm 5 m/s 749 mmHg 55%
05:00 +13°C° 0.9 mm 6 m/s 749 mmHg 61%
06:00 +11°C° 0.9 mm 6 m/s 749 mmHg 67%
07:00 +13°C° 0 mm 6 m/s 750 mmHg 67%
08:00 +13°C° 0 mm 6 m/s 750 mmHg 67%
09:00 +14°C° 0 mm 6 m/s 750 mmHg 67%
10:00 +15°C° 0 mm 6 m/s 750 mmHg 64%
11:00 +16°C° 0 mm 6 m/s 750 mmHg 61%
12:00 +17°C° 0 mm 6 m/s 751 mmHg 58%
13:00 +19°C° 0 mm 6 m/s 751 mmHg 56%
14:00 +19°C° 0 mm 5 m/s 751 mmHg 54%
15:00 +19°C° 0 mm 5 m/s 751 mmHg 53%
16:00 +19°C° 0 mm 4 m/s 751 mmHg 54%
17:00 +18°C° 0 mm 4 m/s 751 mmHg 55%
18:00 +18°C° 0 mm 3 m/s 751 mmHg 55%
19:00 +17°C° 0 mm 4 m/s 751 mmHg 54%
20:00 +17°C° 0 mm 4 m/s 751 mmHg 53%
21:00 +17°C° 0 mm 4 m/s 751 mmHg 53%
22:00 +15°C° 0 mm 4 m/s 751 mmHg 50%
23:00 +15°C° 0 mm 4 m/s 751 mmHg 48%

29 Septembre, Mardi

Heure Température Précipitation Vent Pression Humidité
00:00 +15°C° 0 mm 4 m/s 751 mmHg 45%
01:00 +15°C° 0 mm 4 m/s 751 mmHg 43%
02:00 +15°C° 0 mm 5 m/s 751 mmHg 42%
03:00 +15°C° 0 mm 5 m/s 751 mmHg 40%
04:00 +14°C° 0 mm 5 m/s 751 mmHg 40%
05:00 +14°C° 0 mm 5 m/s 751 mmHg 41%
06:00 +14°C° 0 mm 5 m/s 751 mmHg 41%
07:00 +14°C° 0 mm 6 m/s 751 mmHg 42%
08:00 +14°C° 0 mm 6 m/s 751 mmHg 44%
09:00 +14°C° 0 mm 7 m/s 751 mmHg 45%
10:00 +15°C° 0 mm 7 m/s 750 mmHg 43%
11:00 +16°C° 0 mm 7 m/s 750 mmHg 40%
12:00 +16°C° 0 mm 7 m/s 750 mmHg 37%
13:00 +17°C° 0 mm 7 m/s 750 mmHg 37%
14:00 +17°C° 0 mm 7 m/s 750 mmHg 37%
15:00 +18°C° 0 mm 7 m/s 750 mmHg 37%
16:00 +17°C° 0 mm 6 m/s 750 mmHg 39%
17:00 +16°C° 0 mm 6 m/s 749 mmHg 41%
18:00 +15°C° 0 mm 5 m/s 749 mmHg 43%
19:00 +15°C° 0 mm 5 m/s 749 mmHg 41%
20:00 +15°C° 0 mm 5 m/s 749 mmHg 40%
21:00 +14°C° 0 mm 5 m/s 749 mmHg 39%
22:00 +14°C° 0 mm 5 m/s 749 mmHg 36%
23:00 +14°C° 0 mm 5 m/s 748 mmHg 34%

30 Septembre, Mercredi

Heure Température Précipitation Vent Pression Humidité
00:00 +15°C° 0 mm 6 m/s 748 mmHg 32%
01:00 +14°C° 0 mm 6 m/s 748 mmHg 32%
02:00 +14°C° 0 mm 6 m/s 748 mmHg 31%
03:00 +13°C° 0 mm 6 m/s 748 mmHg 31%
04:00 +13°C° 0 mm 6 m/s 748 mmHg 32%
05:00 +13°C° 0 mm 6 m/s 748 mmHg 32%
06:00 +13°C° 0 mm 6 m/s 748 mmHg 33%
07:00 +12°C° 0 mm 7 m/s 747 mmHg 34%
08:00 +12°C° 0 mm 7 m/s 747 mmHg 36%
09:00 +13°C° 0 mm 8 m/s 747 mmHg 37%
10:00 +15°C° 0 mm 8 m/s 747 mmHg 35%
11:00 +16°C° 0 mm 8 m/s 747 mmHg 33%
12:00 +17°C° 0 mm 9 m/s 747 mmHg 31%
13:00 +17°C° 0 mm 9 m/s 747 mmHg 30%
14:00 +18°C° 0 mm 8 m/s 747 mmHg 29%
15:00 +18°C° 0 mm 8 m/s 746 mmHg 28%
16:00 +17°C° 0 mm 8 m/s 746 mmHg 29%
17:00 +17°C° 0 mm 7 m/s 746 mmHg 31%
18:00 +16°C° 0 mm 6 m/s 746 mmHg 32%
19:00 +16°C° 0 mm 6 m/s 746 mmHg 32%
20:00 +16°C° 0 mm 6 m/s 746 mmHg 32%
21:00 +15°C° 0 mm 6 m/s 746 mmHg 32%
22:00 +15°C° 0 mm 6 m/s 746 mmHg 33%
23:00 +15°C° 0 mm 7 m/s 746 mmHg 33%

1 Octobre, Jeudi

Heure Température Précipitation Vent Pression Humidité
00:00 +15°C° 0 mm 7 m/s 746 mmHg 34%
01:00 +15°C° 0 mm 7 m/s 746 mmHg 36%
02:00 +15°C° 0 mm 7 m/s 746 mmHg 38%
03:00 +14°C° 0 mm 7 m/s 746 mmHg 40%
04:00 +14°C° 0 mm 7 m/s 746 mmHg 40%
05:00 +14°C° 0 mm 7 m/s 747 mmHg 40%
06:00 +13°C° 0 mm 8 m/s 747 mmHg 41%
07:00 +13°C° 0 mm 8 m/s 747 mmHg 41%
08:00 +13°C° 0 mm 8 m/s 747 mmHg 42%
09:00 +13°C° 0 mm 9 m/s 747 mmHg 42%
10:00 +16°C° 0 mm 9 m/s 747 mmHg 40%
11:00 +17°C° 0 mm 9 m/s 748 mmHg 37%
12:00 +18°C° 0 mm 9 m/s 748 mmHg 34%
13:00 +18°C° 0 mm 9 m/s 748 mmHg 33%
14:00 +19°C° 0 mm 9 m/s 748 mmHg 32%
15:00 +20°C° 0 mm 8 m/s 748 mmHg 31%
16:00 +18°C° 0 mm 7 m/s 748 mmHg 32%
17:00 +19°C° 0 mm 6 m/s 748 mmHg 34%
18:00 +17°C° 0 mm 5 m/s 748 mmHg 36%
19:00 +17°C° 0 mm 6 m/s 748 mmHg 35%
20:00 +17°C° 0 mm 6 m/s 748 mmHg 35%
21:00 +16°C° 0 mm 6 m/s 749 mmHg 35%
22:00 +16°C° 0 mm 6 m/s 749 mmHg 37%
23:00 +15°C° 0 mm 6 m/s 749 mmHg 39%
Voir plus